Location: Mohawk View
(42.7837°N, 73.7885°W)
Time: 00:08:51
(UTC+00:00)

Helios 1A - Pass Details

Date: 17 June 2021
Orbit: 584 x 601 km, 98.2° (Epoch: 23 July)

Event Time Altitude Azimuth Distance (km) Brightness Sun altitude
Exits shadow 06:59:05 23° 263° (W) 1,265 4.3 -18.0°
Maximum altitude 06:59:11 23° 265° (W) 1,265 4.3 -18.0°
Drops below altitude 10° 07:02:35 10° 319° (NW) 1,937 5.8 -17.7°
Sets 07:05:07 0° 334° (NNW) 2,848 6.9 -17.5°
